Regional Weather Roundup
Issued by NWS

Home | Current Version | Previous Version | Graphics & Text | Print | Product List | Glossary On
Versions: 1 2 3 4 5 6 7 8 9 10 11 12 13 14 15 16 17 18 19 20 21 22 23 24 25 26 27 28 29 30 31 32 33 34 35 36 37 38 39 40 41 42 43 44 45 46 47 48 49 50
000
ASUS45 KSLC 100910
RWRUT

UTAH REGIONAL WEATHER ROUNDUP
NATIONAL WEATHER SERVICE SALT LAKE CITY UT
200 AM MST SAT DEC 10 2016

UTZ001>011-023>025-101000-

NORTHERN UTAH

CITY           SKY/WX    TMP DP  RH WIND       PRES   REMARKS
BRIGHAM CITY     N/A     33  31  91 SE5       30.01F WCI  29
HILL AFB       CLOUDY    39  28  65 S6        30.00F WCI  35
LOGAN          MIX PCPN  34  34 100 NE5       30.02S FOG     WCI  30
OGDEN          CLOUDY    38  30  73 S3        30.00F
SALT LAKE CITY CLOUDY    32  30  92 NW6       30.01F FOG     WCI  26
WENDOVER       CLOUDY    27  21  80 CALM      30.01F
HEBER CITY     CLOUDY    32  27  80 E5        30.03S WCI  27

$$

UTZ011>015-024>027-101000-

CENTRAL/NORTHEAST UTAH

CITY           SKY/WX    TMP DP  RH WIND       PRES   REMARKS
PROVO AIRPORT  CLOUDY    38  28  67 E3        30.07S
MOAB/CANYONLAN CLEAR     22  11  62 CALM      30.20S
DELTA          CLOUDY    41  32  70 S20       30.08S
PRICE          MOCLDY    20  13  74 CALM      30.17F
ROOSEVELT      CLOUDY    18  14  86 CALM      30.16F
VERNAL         CLOUDY    18  13  80 N3        30.15S

$$

UTZ013>016-019>022-027-101000-

SOUTHERN UTAH

CITY           SKY/WX    TMP DP  RH WIND       PRES   REMARKS
BRYCE CANYON   CLEAR     14  11  87 S3        30.22F
CEDAR CITY     PTCLDY    37  32  82 SE5       30.17R WCI  33
MILFORD        MOCLDY    35  31  85 S18       30.13S WCI  24
ST GEORGE      CLOUDY    39  27  60 CALM      30.24S
HANKSVILLE     PTCLDY    21  10  63 CALM      30.24F
BLANDING       CLEAR     32  24  72 CALM      30.30F

$$

REGIONAL REPORTS     COLORADO/ARIZONA

CITY           SKY/WX    TMP DP  RH WIND       PRES   REMARKS
CRAIG, CO      CLOUDY    27  22  81 SE6       30.10S WCI  20
GRAND JUNCTION CLOUDY    24  20  84 E5        30.20S WCI  18
RIFLE, CO      CLOUDY    22  19  89 CALM      30.21R
MONTROSE, CO   CLOUDY    26  22  84 SE7       30.21F WCI  18
CORTEZ, CO     CLOUDY    21  19  92 CALM      30.24F
COLORADO CITY    N/A     28  28 100 SE6       30.25S WCI  22
PAGE, AZ       PTCLDY    34  16  47 CALM      30.21F
GRAND CANYON   PTCLDY    24  23  96 E5        30.25F WCI  18
KINGMAN, AZ    CLEAR     35  30  82 CALM      30.20S
FLAGSTAFF, AZ  PTCLDY    26  24  92 W3        30.27R

$$

REGIONAL REPORTS    NEVADA/IDAHO/WYOMING

CITY           SKY/WX    TMP DP  RH WIND       PRES   REMARKS
LAS VEGAS, NV  PTCLDY    43  14  31 SW5       30.19S
ELY, NY        CLOUDY    32  25  75 S3        30.12F
ELKO, NV       CLOUDY    40  28  62 CALM      29.99F
POCATELLO, ID  LGT RAIN  36  33  89 S13       29.96S WCI  27
BURLEY, ID     LGT RAIN  35  34  96 CALM      29.94F
FORT BRIDGER,  PTSUNNY   34  25  69 W12       30.03R WCI  25
EVANSTON, WY   CLOUDY    36  21  54 SW7       30.03R WCI  30
ROCK SPRINGS,  CLOUDY    32  23  69 W9        30.00F WCI  24
KEMMERER, WY     N/A     32  27  80 SW13      29.99F WCI  22

$$



USA.gov is the U.S. government's official web portal to all federal, state and local government web resources and services.